Location: Elaina
(34.1445°N, 106.7742°W)
Time: 23:01:08
(UTC+00:00)

Cosmos-2242 - Visible Passes

Search period start: 12 March 2026 00:00
Search period end: 22 March 2026 00:00
Orbit: 567 x 588 km, 82.5° (Epoch: 12 March)

Date Brightness Start Highest point End Pass type
(mag) Time Alt. Az. Time Alt. Az. Time Alt. Az.
12 Mar 5.2 01:37:09 10° NNW 01:40:55 31° W 01:44:38 10° SSW visible
13 Mar 5.9 01:41:48 10° NW 01:45:07 23° W 01:48:25 10° SW visible
13 Mar 6.5 12:27:06 10° ESE 12:29:07 13° E 12:31:08 10° ENE visible
14 Mar 6.4 01:46:40 10° NW 01:49:18 16° W 01:51:56 10° SW visible
14 Mar 6.2 12:30:22 10° SE 12:33:17 19° E 12:36:13 10° NE visible
15 Mar 6.9 01:52:01 10° WNW 01:53:28 12° W 01:54:54 10° WSW visible
15 Mar 5.6 12:34:01 10° SE 12:37:28 26° E 12:40:58 10° NNE visible
16 Mar 4.8 12:37:51 10° SSE 12:41:40 36° E 12:45:32 10° NNE visible
17 Mar 4.0 12:41:51 10° S 12:45:53 52° E 12:49:59 10° NNE visible
18 Mar 3.2 12:45:59 10° S 12:50:08 76° E 12:54:21 10° N visible
21 Mar 6.2 11:24:24 10° ESE 11:26:23 13° E 11:28:21 10° ENE visible
